Location: Sawmill Trailhead
(33.5800°N, 116.4497°W)
Time: 08:22:42
(UTC-07:00)

Uosat F - Visible Passes

Search period start: 23 October 2017 00:00
Search period end: 02 November 2017 00:00
Orbit: 751 x 760 km, 98.8° (Epoch: 22 October)

Date Brightness Start Highest point End Pass type
(mag) Time Alt. Az. Time Alt. Az. Time Alt. Az.
23 Oct 12.2 19:43:03 10° S 19:47:49 43° W 19:52:37 10° NNW visible
24 Oct 11.0 19:03:18 10° SSE 19:08:18 72° ENE 19:13:21 10° N visible
25 Oct 11.9 18:24:48 10° SE 18:29:02 28° ENE 18:33:17 10° NNE visible
25 Oct 13.1 20:03:27 10° SSW 20:07:40 27° W 20:11:56 10° NW visible
26 Oct 11.3 19:23:03 10° S 19:28:04 72° WSW 19:33:07 10° NNW visible
27 Oct 11.4 18:43:55 10° SE 18:48:40 44° ENE 18:53:27 10° N visible
27 Oct 13.8 20:24:21 10° SW 20:27:34 17° W 20:30:48 10° NW visible
28 Oct 12.2 19:43:05 10° S 19:47:51 44° W 19:52:41 10° NNW visible
29 Oct 11.0 19:03:22 10° SSE 19:08:22 71° ENE 19:13:24 10° N visible
30 Oct 11.9 18:24:52 10° SE 18:29:05 28° ENE 18:33:19 10° NNE visible
30 Oct 13.1 20:03:28 10° SSW 20:07:43 28° W 20:12:01 10° NW visible
31 Oct 14.7 06:38:45 10° ENE 06:40:05 11° E 06:41:23 10° ESE visible
31 Oct 11.3 19:23:06 10° S 19:28:07 73° WSW 19:33:11 10° NNW visible
01 Nov 11.4 18:43:59 10° SE 18:48:44 43° ENE 18:53:29 10° N visible
01 Nov 13.7 20:24:21 10° SW 20:27:37 17° W 20:30:55 10° NW visible
